Flag for Palestinian Territories Weather past 2 weeks in Nablus, West Bank, Palestinian Territories

77 °F

Scattered clouds.

Feels Like: 79 °F
Forecast: 61 / 75 °F
Wind: 2 mph from North

Location: Ben Gurion International Airport

Current Time: Oct 5, 2015 at 8:01:45 AM

Latest Report: Oct 5, 2015 at 6:50 AM

Visibility: N/A

Pressure: 29.98 "Hg (28.20 "Hg at 534m altitude)

Humidity: 74%

Dew point: 68 °F

Location of NablusLocation

Historic Weather in Nablus — Graph


Nablus temperature yesterday

Maximum temperature yesterday: 86 °F (at 11:50 AM)
Minimum temperature yesterday: 73 °F (at 4:20 AM)
Average temperature yesterday: 81 °F

Past Weeks' High & Low Weather Summary

High99 °F (Sep 20, 1:20 PM)83% (Sep 24, 6:20 AM)30.12 "Hg (Sep 24, 6:20 AM)
Low70 °F (Sep 25, 6:50 AM)18% (Sep 23, 11:50 AM)29.77 "Hg (Sep 20, 2:20 PM)
Average82 °F61%29.94 "Hg
* Reported Sep 20 6:20 AM — Oct 5 6:20 AM, Nablus, Weather by CustomWeather, © 2015

Note: Actual official high and low records may vary slightly from our data, if they occured in-between our weather recording intervals... More about our weather records


Nablus weather history for previous 24 hours

Time TempWeatherWind HumidityBarometerVisibility
6:20 AM
Mon, Oct 5
77 °FPassing clouds.3 mph74%29.98 "HgN/A
5:50 AM77 °FPassing clouds.3 mph74%29.98 "HgN/A
5:20 AM77 °FPassing clouds.2 mph74%29.98 "HgN/A
4:50 AM77 °FPassing clouds.2 mph74%29.98 "HgN/A
4:20 AM77 °FPassing clouds.1 mph74%29.98 "HgN/A
3:50 AM77 °FPassing clouds.2 mph74%29.98 "HgN/A
3:20 AM77 °FPassing clouds.2 mph74%29.98 "HgN/A
2:50 AM79 °FPassing clouds.2 mph70%29.98 "HgN/A
2:20 AM77 °FPassing clouds.2 mph74%30.01 "HgN/A
1:50 AM79 °FPassing clouds.3 mph70%30.01 "HgN/A
1:20 AM79 °FPassing clouds.3 mph70%30.01 "HgN/A
12:50 AM79 °FPassing clouds.3 mph70%30.01 "HgN/A
12:20 AM79 °FPassing clouds.5 mph70%30.01 "HgN/A
11:50 PM
Sun, Oct 4
79 °FPassing clouds.5 mph70%30.01 "HgN/A
11:20 PM79 °FPassing clouds.8 mph70%30.01 "HgN/A
10:50 PM81 °FPassing clouds.7 mph66%30.01 "HgN/A
10:20 PM81 °FPassing clouds.5 mph70%30.01 "HgN/A
9:50 PM81 °FPassing clouds.3 mph66%30.04 "HgN/A
9:20 PM81 °FPassing clouds.5 mph66%30.04 "HgN/A
8:50 PM81 °FPassing clouds.8 mph66%30.04 "HgN/A
8:20 PM81 °FPassing clouds.7 mph66%30.04 "HgN/A
7:50 PM81 °FPassing clouds.6 mph66%30.04 "HgN/A
7:20 PM81 °FPassing clouds.9 mph66%30.01 "HgN/A
6:50 PM81 °FPassing clouds.9 mph66%30.01 "HgN/A
6:20 PM81 °FPassing clouds.12 mph66%30.01 "HgN/A
5:50 PM82 °FPassing clouds.10 mph66%30.01 "HgN/A
5:20 PM82 °FPassing clouds.12 mph66%30.01 "HgN/A
4:50 PM84 °FPassing clouds.12 mph62%30.01 "HgN/A
4:20 PM84 °FPassing clouds.10 mph62%30.01 "HgN/A
3:50 PM86 °FScattered clouds.13 mph59%30.01 "HgN/A
3:20 PM86 °FScattered clouds.12 mph59%30.01 "HgN/A
2:50 PM86 °FPassing clouds.13 mph62%30.04 "HgN/A
2:20 PM86 °FPassing clouds.12 mph62%30.04 "HgN/A
1:50 PM86 °FPassing clouds.12 mph62%30.04 "HgN/A
1:20 PM86 °FScattered clouds.12 mph62%30.04 "HgN/A
12:50 PM86 °FScattered clouds.12 mph62%30.07 "HgN/A
11:50 AM86 °FScattered clouds.9 mph59%30.07 "HgN/A
11:20 AM84 °FScattered clouds.8 mph62%30.07 "HgN/A
10:20 AM84 °FScattered clouds.5 mph58%30.09 "HgN/A
9:50 AM84 °FScattered clouds.5 mph62%30.09 "HgN/A
9:20 AM82 °FPassing clouds.1 mph70%30.09 "HgN/A
8:50 AM82 °FPassing clouds.1 mph66%30.09 "HgN/A
8:20 AM79 °FSunny.1 mph70%30.09 "Hg10 mi
Weather by CustomWeather, © 2015

See weather overviewHow to use our weather pages